Regional Weather Roundup
Issued by NWS

Home | Current Version | Previous Version | Graphics & Text | Print | Product List | Glossary On
Versions: 1 2 3 4 5 6 7 8 9 10 11 12 13 14 15 16 17 18 19 20 21 22 23 24 25 26 27 28
000
ASUS45 KPSR 052310
RWRAZ

ARIZONA HOURLY REGIONAL WEATHER ROUNDUP
NATIONAL WEATHER SERVICE PHOENIX AZ
400 PM MST THU MAY 05 2016

NOTE: FAIR INDICATES FEW OR NO CLOUDS BELOW 12,000 FEET WITH NO
SIGNIFICANT WEATHER AND/OR OBSTRUCTIONS TO VISIBILITY.

AZZ001>003-036-060000-
NORTHWEST ARIZONA

CITY           SKY/WX    TMP DP  RH WIND       PRES   REMARKS
BULLHEAD CITY  SUNNY     91  25   9 S24G31    29.65F
KINGMAN        SUNNY     83  22  10 SE24G32   29.78F
$$

AZZ004>008-015-016-018-060000-
NORTH CENTRAL ARIZONA

CITY           SKY/WX    TMP DP  RH WIND       PRES   REMARKS
GRAND CANYON   MOSUNNY   73  19  13 S17G25    29.98F
WILLIAMS       SUNNY     68  10  10 S23G36    30.06F
PRESCOTT       SUNNY     75  19  12 S20G28    29.91F
FLAGSTAFF      SUNNY     66  18  15 S16G31    30.02F
PAYSON         MOSUNNY   79  16   9 SW12G26   29.97F
PAGE           PTSUNNY   87  24  10 S13G28    29.78F
$$

AZZ009>014-017-060000-
NORTHEAST ARIZONA

CITY           SKY/WX    TMP DP  RH WIND       PRES   REMARKS
WINSLOW        MOSUNNY   83  23  11 S23G35    29.89F
SAINT JOHNS    PTSUNNY   82  24  12 S18G31    29.94F
WINDOW ROCK    CLOUDY    76  29  17 S13G29    30.03F
SHOW LOW       PTSUNNY   73  23  15 S31G38    30.01F
$$

AZZ023-060000-
GREATER PHOENIX AREA

CITY           SKY/WX    TMP DP  RH WIND       PRES   REMARKS
PHOENIX        PTSUNNY   95  23   7 S22G30    29.68F
BUCKEYE        SUNNY     91  25   9 SW23G29   29.71F
GLENDALE       MOSUNNY   97  14   5 S15G26    29.69F
LUKE AFB       SUNNY     96  15   5 S17G24    29.66F
DEER VALLEY    SUNNY     94  25   8 S17G32    29.69F
SCOTTSDALE     SUNNY     94  18   6 S13G24    29.72F
MESA-FALCON    MOSUNNY  N/A N/A N/A S21       29.68F
MESA-GATEWAY   MOSUNNY   97  21   6 S20G25    29.72F
CHANDLER       PTSUNNY   95  23   7 MISG      29.70F
$$

AZZ027-028-060000-
SOUTHWEST MARICOPA COUNTY AND PINAL COUNTY

CITY           SKY/WX    TMP DP  RH WIND       PRES   REMARKS
CASA GRANDE    SUNNY     97  30   9 S16G25    29.72F
GILA BEND      MOSUNNY   95  25   8 S23G38    29.68F
$$

AZZ503-504-507>509-060000-
SOUTHEAST ARIZONA

CITY           SKY/WX    TMP DP  RH WIND       PRES   REMARKS
TUCSON         SUNNY     92  13   5 S15       29.82F
DAVIS-MONTHAN  MOSUNNY   92  16   6 SW20G28   29.80F
RYAN FIELD     SUNNY     91  18   6 S18G33    29.81
NOGALES        SUNNY     85  11   6 S24G30    29.92F
SIERRA VISTA   SUNNY     83   5   5 S9G25     29.97F
DOUGLAS        SUNNY     87  10   5 S25G33    29.93F
SAFFORD        PTSUNNY   94  21   7 SW20G32   29.78F
$$

AZZ020-021-025-026-031-060000-
SOUTHWEST ARIZONA

CITY           SKY/WX    TMP DP  RH WIND       PRES   REMARKS
YUMA           MOSUNNY   88  33  14 S21G28    29.68F
$$

CAZ031-033-041-043-047-048-061-060000-
SOUTHERN CALIFORNIA

CITY           SKY/WX    TMP DP  RH WIND       PRES   REMARKS
DOWNTOWN L.A.  CLOUDY    68  47  46 CALM      29.88F
L.A. AIRPORT   PTSUNNY   67  48  50 SW13      29.89F
SAN DIEGO      PTSUNNY   66  48  52 SW12      29.94F
ONTARIO        CLOUDY    65  46  50 SW13G22   29.88F
RIVERSIDE      CLOUDY    66  46  48 W6        29.88F
PALM SPRINGS   MOSUNNY   78  41  26 W23G39    29.74F
EL CENTRO NAS  MOSUNNY   82  38  20 W31G39    29.73F
IMPERIAL       SUNNY     82  41  23 W26G36    29.70F
BLYTHE         SUNNY     89  38  16 S21       29.67F
NEEDLES        SUNNY     91  28  10 S23G33    29.65F
$$

NVZ020-UTZ003-060000-
SOUTHERN NEVADA-UTAH

CITY           SKY/WX    TMP DP  RH WIND       PRES   REMARKS
LAS VEGAS      PTSUNNY   83  15   8 SE12G29   29.65F
SALT LAKE CITY CLOUDY    83  29  14 S17       29.79F
$$

NMZ009-TXZ055-060000-
NEW MEXICO-WEST TEXAS

CITY           SKY/WX    TMP DP  RH WIND       PRES   REMARKS
ALBUQUERQUE    MOSUNNY   82  23  11 SW15G25   30.02F
EL PASO        MOSUNNY   89  30  12 S12G28    29.95F
$$


........................KEY........................
SKY/WX - SKY CONDITION/WEATHER
TMP    - TEMPERATURE IN FAHRENHEIT
DP     - DEW POINT IN FAHRENHEIT
RH     - RELATIVE HUMIDITY IN PERCENT
WIND   - DIRECTION AND SPEED IN MILES PER HOUR (MPH)
VRB    - VARIABLE WIND DIRECTION
PRES   - MEAN SEA LEVEL PRESSURE IN INCHES OF MERCURY
         F - FALLING PRESSURE   R - RISING PRESSURE
         S - STEADY PRESSURE
VSB    - VISIBILITY IN MILES
HX     - HEAT INDEX IN FAHRENHEIT
WCI    - WIND CHILL INDEX IN FAHRENHEIT
TC     - TEMPERATURE IN CELSIUS WHICH IS ALSO KNOWN AS
         TEMPERATURE IN CENTIGRADE
AFB    - AIR FORCE BASE
         LUKE AFB IS LUKE AIR FORCE BASE
         DAVIS-MONTHAN IS DAVIS-MONTHAN AIR FORCE BASE
NAS    - NAVAL AIR STATION
         EL CENTRO NAS IS EL CENTRO NAVAL AIR STATION
N/A    - NOT AVAILABLE





USA.gov is the U.S. government's official web portal to all federal, state and local government web resources and services.